Flag for Austria Weather past 2 weeks in Bad Radkersburg, Styria, Austria

Now
71 °F

Mild.


Feels Like: 75 °F
Forecast: 44 / 68 °F
Wind: 7 mph from Northeast

Location: Murska Sobota

Current Time: Apr 21, 2015 at 5:41:36 PM

Latest Report: Apr 21, 2015 at 5:00 PM


Visibility: N/A

Pressure: 30.11 "Hg

Humidity: 21%

Dew point: 29 °F

Location of Bad RadkersburgLocation

Historic Weather in Bad Radkersburg — Graph

°F

Bad Radkersburg temperature yesterday

Maximum temperature yesterday: 67 °F (at 6:00 PM)
Minimum temperature yesterday: 34 °F (at 3:00 AM)
Average temperature yesterday: 51 °F

Past Weeks' High & Low Weather Summary

 TemperatureHumidityPressure
High78 °F (Apr 16, 2:00 PM)96% (Apr 10, 6:00 AM)30.50 "Hg (Apr 10, 6:00 AM)
Low31 °F (Apr 19, 6:00 AM)26% (Apr 15, 5:00 PM)29.80 "Hg (Apr 17, 6:00 PM)
Average52 °F61%30.21 "Hg
* Reported Apr 6 4:00 PM — Apr 21 4:00 PM, Bad Radkersburg, Weather by CustomWeather, © 2015

Note: Actual official high and low records may vary slightly from our data, if they occured in-between our weather recording intervals... More about our weather records

Advertising

Bad Radkersburg weather history for previous 24 hours

 ConditionsComfort  
Time TempWeatherWind HumidityBarometerVisibility
4:00 PM
Tue, Apr 21
68 °FMild.2 mph37%30.12 "HgN/A
3:00 PM67 °FPassing clouds.2 mph35%30.15 "Hg6 mi
2:00 PM65 °FPassing clouds.2 mph41%30.18 "Hg6 mi
1:00 PM64 °FMild.1 mph43%30.21 "HgN/A
12:00 PM62 °FRefreshingly cool.3 mph41%30.23 "HgN/A
11:00 AM59 °FRefreshingly cool.2 mph46%30.24 "HgN/A
10:00 AM54 °FCool.2 mph56%30.25 "HgN/A
9:00 AM55 °FCool.2 mph50%30.24 "HgN/A
8:00 AM50 °FScattered clouds.1 mph60%30.24 "Hg6 mi
7:00 AM47 °FPassing clouds.2 mph69%30.23 "Hg6 mi
6:00 AM43 °FQuite cool.3 mph79%30.21 "HgN/A
5:00 AM42 °FQuite cool.1 mph77%30.20 "HgN/A
4:00 AM45 °FCool.1 mph71%30.18 "HgN/A
3:00 AM46 °FCool.3 mph67%30.17 "HgN/A
2:00 AM50 °FCool.No wind59%30.16 "HgN/A
1:00 AM49 °FCool.2 mph61%30.16 "HgN/A
12:00 AM53 °FCool.3 mph51%30.15 "HgN/A
11:00 PM
Mon, Apr 20
55 °FCool.3 mph50%30.14 "HgN/A
10:00 PM55 °FRefreshingly cool.1 mph47%30.12 "HgN/A
9:00 PM58 °FRefreshingly cool.5 mph42%30.11 "HgN/A
8:00 PM60 °FPassing clouds.3 mph38%30.07 "Hg31 mi
7:00 PM65 °FMild.5 mph32%30.03 "HgN/A
6:00 PM67 °FMild.5 mph30%30.02 "HgN/A
5:00 PM66 °FMild.2 mph33%30.02 "HgN/A
Weather by CustomWeather, © 2015

See weather overviewHow to use our weather pages